Location: Observatoire
(46.1952°N, 5.3391°E)
Time: 23:14:51
(UTC+01:00)

A-11 Canister half - Pass Details

Date: 17 February 2026
Orbit: 1525 x 1683 km, 47.3° (Epoch: 5 March)

Event Time Altitude Azimuth Distance (km) Brightness Sun altitude
Rises 01:01:30 0° 290° (WNW) 4,686 11.7 -55.8°
Enters shadow 01:01:51 - 289° (WNW) 4,588 11.6 -55.8°
Reaches altitude 10° 01:05:20 10° 277° (W) 3,712 - -55.8°
Maximum altitude 01:12:02 23° 230° (SW) 2,866 - -55.6°
Drops below altitude 10° 01:18:52 10° 184° (S) 3,774 - -55.4°
Sets 01:22:51 0° 170° (S) 4,782 - -55.3°
